Station Historical Data
Daily Summary for June 30, 2017 Units:  Metric    English   Both
« Previous Day
Next Day »
Daily Weekly Monthly Yearly Custom
  High: Low: Average:
Temperature: 24.4 °C 20.3 °C 22.5 °C
Dew Point: 20.2 °C 17.9 °C 18.9 °C
Humidity: 90% 74% 80%
Wind Speed: 20.9km/h 0km/h 7.1km/h
Wind Gust: 35.4km/h - -
Wind- - SW
Pressure: 1012.1 hPa 1009.7 hPa -
Precipitation: 0 mm    
Historical Graphs
 
 
Tabular Data for June 30, 2017
Time Temperature Dew Point Pressure Wind Wind Speed Wind Gust Humidity Rainfall Rate (Hourly)
00:04 22.9 °C 18.7 °C 1010.4 hPa Calm   4.8 km/h 77% 0 mm
00:09 22.8 °C 18.6 °C 1010 hPa Calm   4.8 km/h 77% 0 mm
00:14 22.6 °C 18.6 °C 1010 hPa WSW 3.2 km/h 3.2 km/h 78% 0 mm
00:19 22.5 °C 18.4 °C 1010 hPa Calm   3.2 km/h 78% 0 mm
00:24 22.4 °C 18.6 °C 1010 hPa Calm   3.2 km/h 79% 0 mm
00:29 22.5 °C 18.4 °C 1010 hPa SSW 1.6 km/h 6.4 km/h 78% 0 mm
00:34 22.4 °C 18.4 °C 1010 hPa SW 3.2 km/h 6.4 km/h 78% 0 mm
00:39 22.5 °C 18.4 °C 1010 hPa SW 3.2 km/h 8 km/h 78% 0 mm
00:44 22.6 °C 18.4 °C 1010 hPa SSW 1.6 km/h 9.7 km/h 77% 0 mm
00:49 22.8 °C 18.6 °C 1010 hPa WSW 8 km/h 11.3 km/h 77% 0 mm
00:54 22.8 °C 18.3 °C 1010 hPa SW 4.8 km/h 11.3 km/h 76% 0 mm
00:59 22.9 °C 18.4 °C 1010.4 hPa West 8 km/h 11.3 km/h 76% 0 mm
01:04 23.1 °C 18.4 °C 1010.4 hPa SW 1.6 km/h 14.5 km/h 75% 0 mm
01:09 23.2 °C 18.5 °C 1010.4 hPa SSW 8 km/h 12.9 km/h 75% 0 mm
01:14 23.3 °C 18.4 °C 1010.4 hPa SW 8 km/h 14.5 km/h 74% 0 mm
01:19 23.3 °C 18.4 °C 1010.4 hPa SW 3.2 km/h 12.9 km/h 74% 0 mm
01:24 23.4 °C 18.5 °C 1010.4 hPa SW 6.4 km/h 14.5 km/h 74% 0 mm
01:29 23.3 °C 18.4 °C 1010.4 hPa SW 6.4 km/h 16.1 km/h 74% 0 mm
01:34 23.4 °C 18.5 °C 1010.4 hPa SW 4.8 km/h 14.5 km/h 74% 0 mm
01:39 23.3 °C 18.4 °C 1010.7 hPa SW 8 km/h 14.5 km/h 74% 0 mm
01:44 23.3 °C 18.4 °C 1010.7 hPa SW 17.7 km/h 19.3 km/h 74% 0 mm
01:49 23.4 °C 18.5 °C 1010.7 hPa SW 6.4 km/h 17.7 km/h 74% 0 mm
01:54 23.3 °C 18.7 °C 1010.7 hPa WSW 6.4 km/h 17.7 km/h 75% 0 mm
01:59 23.3 °C 18.6 °C 1010.7 hPa West 8 km/h 16.1 km/h 75% 0 mm
02:04 23.3 °C 18.7 °C 1010.7 hPa WSW 6.4 km/h 16.1 km/h 75% 0 mm
02:09 23.3 °C 18.7 °C 1010.7 hPa WSW 8 km/h 19.3 km/h 75% 0 mm
02:14 23.4 °C 18.7 °C 1010.7 hPa WSW 8 km/h 19.3 km/h 75% 0 mm
02:19 23.4 °C 18.7 °C 1010.7 hPa WSW 3.2 km/h 14.5 km/h 75% 0 mm
02:24 23.4 °C 18.8 °C 1010.7 hPa WSW 12.9 km/h 16.1 km/h 75% 0 mm
02:29 23.4 °C 18.8 °C 1010.7 hPa SW 11.3 km/h 19.3 km/h 75% 0 mm
02:34 23.4 °C 18.8 °C 1010.7 hPa WSW 6.4 km/h 16.1 km/h 75% 0 mm
02:39 23.3 °C 18.7 °C 1010.7 hPa WSW 8 km/h 11.3 km/h 75% 0 mm
02:44 23.3 °C 18.8 °C 1010.7 hPa SW 6.4 km/h 12.9 km/h 76% 0 mm
02:49 23.3 °C 18.8 °C 1010.7 hPa West 6.4 km/h 12.9 km/h 76% 0 mm
02:54 23.2 °C 18.6 °C 1010.7 hPa SW 6.4 km/h 12.9 km/h 75% 0 mm
02:59 23.3 °C 18.6 °C 1010.7 hPa WSW 8 km/h 19.3 km/h 75% 0 mm
03:04 23.3 °C 18.7 °C 1010.7 hPa WSW 8 km/h 19.3 km/h 75% 0 mm
03:09 23.3 °C 18.7 °C 1010.7 hPa SW 6.4 km/h 14.5 km/h 75% 0 mm
03:14 23.3 °C 18.6 °C 1010.7 hPa SW 6.4 km/h 12.9 km/h 75% 0 mm
03:19 23.3 °C 18.6 °C 1010.7 hPa SW 6.4 km/h 12.9 km/h 75% 0 mm
03:24 23.3 °C 18.4 °C 1010.4 hPa SSW 4.8 km/h 12.9 km/h 74% 0 mm
03:29 23.2 °C 18.5 °C 1010.4 hPa WSW 6.4 km/h 11.3 km/h 75% 0 mm
03:34 23.2 °C 18.5 °C 1010.4 hPa SW 3.2 km/h 11.3 km/h 75% 0 mm
03:39 23.1 °C 18.4 °C 1010.4 hPa SW 3.2 km/h 9.7 km/h 75% 0 mm
03:44 23 °C 18.3 °C 1010 hPa SW 1.6 km/h 11.3 km/h 75% 0 mm
03:49 22.9 °C 18.3 °C 1010 hPa SW 4.8 km/h 11.3 km/h 75% 0 mm
03:54 22.9 °C 18.3 °C 1010 hPa SW 4.8 km/h 9.7 km/h 75% 0 mm
03:59 22.9 °C 18.2 °C 1010 hPa SW 4.8 km/h 9.7 km/h 75% 0 mm
04:04 22.8 °C 18.1 °C 1010 hPa SW 3.2 km/h 9.7 km/h 75% 0 mm
04:09 22.7 °C 18.3 °C 1010 hPa SW 3.2 km/h 8 km/h 76% 0 mm
04:14 22.6 °C 18.2 °C 1010 hPa SSW 3.2 km/h 9.7 km/h 76% 0 mm
04:19 22.7 °C 18.2 °C 1009.7 hPa SW 3.2 km/h 9.7 km/h 76% 0 mm
04:24 22.7 °C 18.2 °C 1009.7 hPa SSW 6.4 km/h 9.7 km/h 76% 0 mm
04:29 22.7 °C 18.4 °C 1010 hPa SSW 4.8 km/h 12.9 km/h 77% 0 mm
04:34 22.6 °C 18.4 °C 1010 hPa Calm   6.4 km/h 77% 0 mm
04:39 22.6 °C 18.3 °C 1010 hPa SSW 1.6 km/h 9.7 km/h 77% 0 mm
04:44 22.6 °C 18.3 °C 1010 hPa SSW 9.7 km/h 11.3 km/h 77% 0 mm
04:49 22.5 °C 18.3 °C 1010 hPa SSW 3.2 km/h 11.3 km/h 77% 0 mm
04:54 22.5 °C 18.3 °C 1010.4 hPa SW 3.2 km/h 9.7 km/h 77% 0 mm
04:59 22.4 °C 18.2 °C 1010.4 hPa SW 3.2 km/h 8 km/h 77% 0 mm
05:04 22.4 °C 18.4 °C 1010.4 hPa SW 3.2 km/h 9.7 km/h 78% 0 mm
05:09 22.3 °C 18.3 °C 1010.4 hPa SW 3.2 km/h 9.7 km/h 78% 0 mm
05:14 22.3 °C 18.3 °C 1010.4 hPa SSW 3.2 km/h 11.3 km/h 78% 0 mm
05:19 22.4 °C 18.4 °C 1010.7 hPa SW 3.2 km/h 11.3 km/h 78% 0 mm
05:24 22.4 °C 18.4 °C 1010.7 hPa SW 8 km/h 12.9 km/h 78% 0 mm
05:29 22.5 °C 18.4 °C 1010.7 hPa SW 8 km/h 11.3 km/h 78% 0 mm
05:34 22.6 °C 18.5 °C 1010.7 hPa SSW 1.6 km/h 11.3 km/h 78% 0 mm
05:39 22.6 °C 18.5 °C 1011.1 hPa South 6.4 km/h 14.5 km/h 78% 0 mm
05:44 22.4 °C 18.6 °C 1011.1 hPa WSW 6.4 km/h 19.3 km/h 79% 0 mm
05:49 22.3 °C 18.5 °C 1011.4 hPa SW 8 km/h 19.3 km/h 79% 0 mm
05:54 22.3 °C 18.5 °C 1011.4 hPa SW 9.7 km/h 20.9 km/h 79% 0 mm
05:59 22.4 °C 18.4 °C 1011.7 hPa WSW 11.3 km/h 24.1 km/h 78% 0 mm
06:04 22.4 °C 18.4 °C 1011.7 hPa WSW 12.9 km/h 27.4 km/h 78% 0 mm
06:09 22.3 °C 18.3 °C 1011.7 hPa WSW 19.3 km/h 35.4 km/h 78% 0 mm
06:14 22.3 °C 18.3 °C 1011.4 hPa South 16.1 km/h 27.4 km/h 78% 0 mm
06:19 22 °C 18.4 °C 1011.7 hPa SW 19.3 km/h 30.6 km/h 80% 0 mm
06:24 21.8 °C 18.4 °C 1011.7 hPa WSW 14.5 km/h 32.2 km/h 81% 0 mm
06:29 21.4 °C 18.2 °C 1011.7 hPa WSW 11.3 km/h 25.7 km/h 82% 0.25 mm
06:34 21.2 °C 18.3 °C 1011.7 hPa South 12.9 km/h 24.1 km/h 84% 0.25 mm
06:39 20.9 °C 18.3 °C 1012.1 hPa SW 4.8 km/h 22.5 km/h 85% 0.25 mm
06:44 20.8 °C 18.3 °C 1012.1 hPa SW 6.4 km/h 24.1 km/h 86% 0.51 mm
06:49 20.6 °C 18.4 °C 1012.1 hPa WSW 9.7 km/h 24.1 km/h 87% 0.76 mm
06:54 20.5 °C 18.4 °C 1012.1 hPa WSW 11.3 km/h 19.3 km/h 88% 0.76 mm
06:59 20.4 °C 18.3 °C 1012.1 hPa West 6.4 km/h 12.9 km/h 88% 0.76 mm
07:04 20.3 °C 18.3 °C 1012.1 hPa SSW 4.8 km/h 16.1 km/h 88% 0.76 mm
07:09 20.3 °C 18.4 °C 1012.1 hPa SSW 6.4 km/h 17.7 km/h 89% 0.76 mm
07:14 20.3 °C 18.4 °C 1012.1 hPa WSW 8 km/h 12.9 km/h 89% 1.02 mm
07:19 20.3 °C 18.6 °C 1012.1 hPa SW 8 km/h 16.1 km/h 90% 1.02 mm
07:24 20.4 °C 18.7 °C 1012.1 hPa SW 8 km/h 20.9 km/h 90% 1.02 mm
07:29 20.4 °C 18.7 °C 1012.1 hPa SW 9.7 km/h 24.1 km/h 90% 0.76 mm
07:34 20.4 °C 18.7 °C 1012.1 hPa SW 9.7 km/h 24.1 km/h 90% 0.76 mm
07:39 20.4 °C 18.7 °C 1012.1 hPa SW 8 km/h 17.7 km/h 90% 0.51 mm
07:44 20.4 °C 18.7 °C 1012.1 hPa SSW 6.4 km/h 14.5 km/h 90% 0.51 mm
07:49 20.6 °C 18.8 °C 1012.1 hPa SW 11.3 km/h 12.9 km/h 90% 0.25 mm
07:54 20.6 °C 18.8 °C 1012.1 hPa SW 6.4 km/h 14.5 km/h 90% 0.25 mm
07:59 20.7 °C 18.9 °C 1011.7 hPa South 4.8 km/h 12.9 km/h 90% 0.25 mm
08:04 20.7 °C 18.8 °C 1011.7 hPa WSW 4.8 km/h 16.1 km/h 89% 0.25 mm
08:09 20.8 °C 18.9 °C 1011.7 hPa SW 4.8 km/h 9.7 km/h 89% 0.25 mm
08:14 20.9 °C 19.1 °C 1011.4 hPa SW 6.4 km/h 12.9 km/h 89% 0 mm
08:19 21.1 °C 19.2 °C 1011.4 hPa SW 4.8 km/h 12.9 km/h 89% 0 mm
08:24 21.3 °C 19.4 °C 1011.4 hPa WSW 3.2 km/h 8 km/h 89% 0 mm
08:29 21.3 °C 19.3 °C 1011.4 hPa WSW 3.2 km/h 8 km/h 88% 0 mm
08:34 21.4 °C 19.4 °C 1011.4 hPa WSW 3.2 km/h 8 km/h 88% 0 mm
08:39 21.4 °C 19.2 °C 1011.4 hPa WSW 3.2 km/h 8 km/h 87% 0 mm
08:44 21.5 °C 19.2 °C 1011.1 hPa SSW 3.2 km/h 6.4 km/h 87% 0 mm
08:49 21.5 °C 19.2 °C 1011.4 hPa Calm   6.4 km/h 87% 0 mm
08:54 21.6 °C 19.1 °C 1011.4 hPa SW 3.2 km/h 9.7 km/h 86% 0 mm
08:59 21.4 °C 19 °C 1011.4 hPa SW 3.2 km/h 9.7 km/h 86% 0 mm
09:04 21.4 °C 18.8 °C 1011.4 hPa WSW 9.7 km/h 9.7 km/h 85% 0 mm
09:09 21.3 °C 18.7 °C 1011.4 hPa SW 6.4 km/h 11.3 km/h 85% 0 mm
09:14 21.3 °C 18.5 °C 1011.1 hPa Calm   9.7 km/h 84% 0 mm
09:19 21.3 °C 18.7 °C 1011.1 hPa SSW 4.8 km/h 11.3 km/h 85% 0 mm
09:24 21.3 °C 18.7 °C 1011.1 hPa SSW 3.2 km/h 11.3 km/h 85% 0 mm
09:29 21.2 °C 18.6 °C 1011.1 hPa South 4.8 km/h 9.7 km/h 85% 0 mm
09:34 21.2 °C 18.6 °C 1011.1 hPa Calm   8 km/h 85% 0.25 mm
09:39 21.2 °C 18.8 °C 1011.1 hPa South 3.2 km/h 6.4 km/h 86% 0.25 mm
09:44 21.3 °C 18.9 °C 1011.1 hPa SSW 3.2 km/h 9.7 km/h 86% 0.25 mm
09:49 21.3 °C 18.9 °C 1011.1 hPa SSW 6.4 km/h 14.5 km/h 86% 0.25 mm
09:54 21.4 °C 18.9 °C 1011.1 hPa SSW 6.4 km/h 14.5 km/h 86% 0.25 mm
09:59 21.6 °C 19.1 °C 1011.1 hPa SSW 4.8 km/h 11.3 km/h 86% 0.25 mm
10:04 21.7 °C 19.1 °C 1011.1 hPa South 6.4 km/h 12.9 km/h 85% 0.25 mm
10:09 21.9 °C 19.5 °C 1011.4 hPa SSW 6.4 km/h 12.9 km/h 86% 0.25 mm
10:14 21.8 °C 19.2 °C 1011.4 hPa SW 3.2 km/h 11.3 km/h 85% 0.25 mm
10:19 21.5 °C 18.7 °C 1011.4 hPa SW 4.8 km/h 12.9 km/h 84% 0.25 mm
10:24 21.4 °C 18.8 °C 1011.1 hPa SW 4.8 km/h 12.9 km/h 85% 0.25 mm
10:29 21.4 °C 18.8 °C 1011.1 hPa Calm   11.3 km/h 85% 0.25 mm
10:34 21.4 °C 18.8 °C 1011.1 hPa WSW 3.2 km/h 8 km/h 85% 0 mm
10:39 21.4 °C 18.8 °C 1011.4 hPa SW 8 km/h 12.9 km/h 85% 0 mm
10:44 21.4 °C 18.8 °C 1011.1 hPa SW 1.6 km/h 9.7 km/h 85% 0 mm
10:49 21.4 °C 18.8 °C 1011.1 hPa SW 4.8 km/h 8 km/h 85% 0 mm
10:54 21.7 °C 19.1 °C 1011.1 hPa WSW 4.8 km/h 9.7 km/h 85% 0 mm
10:59 22.2 °C 19.3 °C 1010.7 hPa SW 4.8 km/h 11.3 km/h 84% 0 mm
11:04 22.7 °C 19.6 °C 1010.7 hPa SSW 4.8 km/h 11.3 km/h 83% 0 mm
11:09 22.8 °C 19.6 °C 1010.7 hPa SSW 6.4 km/h 14.5 km/h 82% 0 mm
11:14 23.2 °C 19.9 °C 1010.7 hPa SSW 6.4 km/h 14.5 km/h 82% 0 mm
11:19 23.6 °C 20.1 °C 1010.7 hPa SW 9.7 km/h 12.9 km/h 81% 0 mm
11:24 23.8 °C 20.1 °C 1010.7 hPa SSE 4.8 km/h 16.1 km/h 80% 0 mm
11:29 23.6 °C 20.1 °C 1010.7 hPa SW 8 km/h 16.1 km/h 81% 0 mm
11:34 23.3 °C 19.7 °C 1010.7 hPa WSW 9.7 km/h 17.7 km/h 80% 0 mm
11:39 23.2 °C 19.6 °C 1010.7 hPa WSW 4.8 km/h 19.3 km/h 80% 0 mm
11:44 23.4 °C 19.9 °C 1011.1 hPa WSW 6.4 km/h 14.5 km/h 81% 0 mm
11:49 23.3 °C 19.5 °C 1010.7 hPa SW 6.4 km/h 14.5 km/h 79% 0 mm
11:54 23.7 °C 20 °C 1011.1 hPa SW 6.4 km/h 16.1 km/h 80% 0 mm
11:59 23.8 °C 19.9 °C 1011.1 hPa SW 8 km/h 16.1 km/h 79% 0 mm
12:04 23.6 °C 19.6 °C 1011.1 hPa SW 8 km/h 16.1 km/h 78% 0 mm
12:09 23.5 °C 19.7 °C 1010.7 hPa WSW 8 km/h 17.7 km/h 79% 0 mm
12:14 23.4 °C 19.6 °C 1010.7 hPa West 8 km/h 16.1 km/h 79% 0 mm
12:19 23.6 °C 19.7 °C 1011.1 hPa SW 9.7 km/h 19.3 km/h 79% 0 mm
12:24 23.4 °C 19.8 °C 1011.1 hPa WSW 8 km/h 19.3 km/h 80% 0 mm
12:29 23.3 °C 19.6 °C 1011.1 hPa WSW 11.3 km/h 19.3 km/h 80% 0 mm
12:34 22.8 °C 19.6 °C 1011.1 hPa SW 11.3 km/h 24.1 km/h 82% 0.51 mm
12:39 22.2 °C 19.5 °C 1011.1 hPa WNW 11.3 km/h 19.3 km/h 85% 0.51 mm
12:44 21.8 °C 19.4 °C 1011.1 hPa WNW 6.4 km/h 22.5 km/h 86% 0.51 mm
12:49 21.7 °C 19.7 °C 1010.7 hPa West 8 km/h 22.5 km/h 88% 0.51 mm
12:54 21.9 °C 19.7 °C 1010.7 hPa West 6.4 km/h 14.5 km/h 87% 0.51 mm
12:59 22.1 °C 19.8 °C 1011.1 hPa WSW 6.4 km/h 14.5 km/h 87% 0.51 mm
13:04 22 °C 19.6 °C 1011.1 hPa WSW 6.4 km/h 16.1 km/h 86% 0.51 mm
13:09 21.8 °C 19.2 °C 1011.1 hPa WSW 6.4 km/h 19.3 km/h 85% 0.51 mm
13:14 21.9 °C 19.3 °C 1011.1 hPa West 4.8 km/h 20.9 km/h 85% 0.51 mm
13:19 22.2 °C 19.5 °C 1011.1 hPa WSW 9.7 km/h 20.9 km/h 85% 0.51 mm
13:24 22.4 °C 19.4 °C 1011.1 hPa WSW 9.7 km/h 20.9 km/h 83% 0.51 mm
13:29 22.3 °C 19.5 °C 1011.1 hPa WSW 11.3 km/h 29 km/h 84% 0.51 mm
13:34 22.9 °C 19.7 °C 1011.1 hPa WSW 11.3 km/h 29 km/h 82% 0 mm
13:39 23 °C 19.8 °C 1011.1 hPa WSW 1.6 km/h 20.9 km/h 82% 0 mm
13:44 23 °C 19.6 °C 1011.1 hPa West 17.7 km/h 19.3 km/h 81% 0 mm
13:49 23 °C 19.6 °C 1011.4 hPa WSW 9.7 km/h 19.3 km/h 81% 0 mm
13:54 22.8 °C 19.4 °C 1011.1 hPa WSW 9.7 km/h 20.9 km/h 81% 0 mm
13:59 22.9 °C 19.3 °C 1011.4 hPa WSW 11.3 km/h 24.1 km/h 80% 0 mm
14:04 23.1 °C 19.6 °C 1011.4 hPa WSW 4.8 km/h 16.1 km/h 81% 0 mm
14:09 23.2 °C 19.5 °C 1011.4 hPa West 9.7 km/h 20.9 km/h 80% 0 mm
14:14 23.1 °C 19.1 °C 1011.4 hPa WSW 9.7 km/h 24.1 km/h 78% 0 mm
14:19 23 °C 19.2 °C 1011.4 hPa SW 17.7 km/h 25.7 km/h 79% 0 mm
14:24 23 °C 19.2 °C 1011.4 hPa WSW 12.9 km/h 29 km/h 79% 0 mm
14:29 23.2 °C 19.4 °C 1011.7 hPa WSW 12.9 km/h 29 km/h 79% 0 mm
14:34 23.3 °C 19.3 °C 1011.7 hPa WSW 12.9 km/h 32.2 km/h 78% 0 mm
14:39 23.3 °C 19.3 °C 1011.7 hPa WSW 14.5 km/h 32.2 km/h 78% 0 mm
14:44 23.3 °C 19.2 °C 1011.7 hPa WSW 14.5 km/h 33.8 km/h 78% 0 mm
14:49 23.6 °C 19.8 °C 1011.7 hPa WSW 12.9 km/h 33.8 km/h 79% 0 mm
14:54 23.6 °C 19.8 °C 1011.4 hPa SW 11.3 km/h 22.5 km/h 79% 0 mm
14:59 24.1 °C 20 °C 1011.4 hPa WSW 11.3 km/h 19.3 km/h 78% 0 mm
15:04 23.7 °C 19.8 °C 1011.7 hPa SSW 14.5 km/h 22.5 km/h 79% 0 mm
15:09 23.2 °C 19.1 °C 1011.7 hPa SSW 14.5 km/h 29 km/h 78% 0 mm
15:14 23.1 °C 19.2 °C 1011.7 hPa SW 12.9 km/h 27.4 km/h 79% 0 mm
15:19 22.9 °C 19.3 °C 1011.7 hPa SW 14.5 km/h 24.1 km/h 80% 0 mm
15:24 23.1 °C 19.4 °C 1011.4 hPa SW 12.9 km/h 24.1 km/h 80% 0 mm
15:29 23.1 °C 19.2 °C 1011.4 hPa SSW 9.7 km/h 24.1 km/h 79% 0 mm
15:34 23.1 °C 19.4 °C 1011.4 hPa WSW 12.9 km/h 25.7 km/h 80% 0 mm
15:39 23.5 °C 19.8 °C 1011.4 hPa WSW 11.3 km/h 25.7 km/h 80% 0 mm
15:44 23.7 °C 19.8 °C 1011.1 hPa SSW 8 km/h 25.7 km/h 79% 0 mm
15:49 23.8 °C 19.7 °C 1011.1 hPa WSW 9.7 km/h 25.7 km/h 78% 0 mm
15:54 23.9 °C 19.7 °C 1011.1 hPa SW 11.3 km/h 25.7 km/h 77% 0 mm
15:59 23.9 °C 19.7 °C 1011.1 hPa SW 11.3 km/h 22.5 km/h 77% 0 mm
16:04 23.9 °C 19.4 °C 1011.1 hPa WSW 6.4 km/h 25.7 km/h 76% 0 mm
16:09 24.2 °C 19.9 °C 1010.7 hPa West 9.7 km/h 22.5 km/h 77% 0 mm
16:14 24.4 °C 20.2 °C 1010.7 hPa WSW 8 km/h 17.7 km/h 77% 0 mm
16:19 24.4 °C 19.9 °C 1010.7 hPa West 12.9 km/h 22.5 km/h 76% 0 mm
16:24 24.3 °C 19.8 °C 1010.4 hPa WSW 11.3 km/h 22.5 km/h 76% 0 mm
16:29 24.3 °C 19.6 °C 1010.4 hPa SW 11.3 km/h 22.5 km/h 75% 0 mm
16:34 24.4 °C 19.5 °C 1010.4 hPa SW 11.3 km/h 24.1 km/h 74% 0 mm
16:39 24.4 °C 19.7 °C 1010.4 hPa WSW 11.3 km/h 24.1 km/h 75% 0 mm
16:44 24.3 °C 19.6 °C 1010.4 hPa WSW 12.9 km/h 29 km/h 75% 0 mm
16:49 24.3 °C 19.6 °C 1010.4 hPa SW 11.3 km/h 25.7 km/h 75% 0 mm
16:54 24.1 °C 19.3 °C 1010.4 hPa WSW 11.3 km/h 22.5 km/h 75% 0 mm
16:59 24.2 °C 19.7 °C 1010.4 hPa SW 20.9 km/h 20.9 km/h 76% 0 mm
17:04 24.1 °C 19.4 °C 1010.4 hPa WSW 8 km/h 25.7 km/h 75% 0 mm
17:09 24.3 °C 19.6 °C 1010.4 hPa WSW 9.7 km/h 16.1 km/h 75% 0 mm
17:14 24.4 °C 19.7 °C 1010.4 hPa WSW 12.9 km/h 16.1 km/h 75% 0 mm
17:19 24.2 °C 19.4 °C 1010.4 hPa SW 9.7 km/h 22.5 km/h 75% 0 mm
17:24 24.1 °C 19.6 °C 1010.4 hPa SW 11.3 km/h 22.5 km/h 76% 0 mm
17:29 23.8 °C 19.3 °C 1010.4 hPa SW 11.3 km/h 20.9 km/h 76% 0 mm
17:34 23.8 °C 19.3 °C 1010.4 hPa SW 11.3 km/h 25.7 km/h 76% 0 mm
17:39 23.8 °C 19.6 °C 1010.4 hPa SW 9.7 km/h 25.7 km/h 77% 0 mm
17:44 23.9 °C 19.6 °C 1010.4 hPa SW 9.7 km/h 17.7 km/h 77% 0 mm
17:49 24.1 °C 19.2 °C 1010.4 hPa WSW 12.9 km/h 19.3 km/h 74% 0 mm
17:54 23.8 °C 19.1 °C 1010.4 hPa WSW 9.7 km/h 20.9 km/h 75% 0 mm
17:59 23.9 °C 19.2 °C 1010.4 hPa West 8 km/h 22.5 km/h 75% 0 mm
18:04 23.8 °C 19.3 °C 1010.4 hPa WSW 8 km/h 17.7 km/h 76% 0 mm
18:09 23.8 °C 18.9 °C 1010.4 hPa WNW 9.7 km/h 24.1 km/h 74% 0 mm
18:14 23.9 °C 19.2 °C 1010.4 hPa SW 20.9 km/h 22.5 km/h 75% 0 mm
18:19 23.8 °C 19.1 °C 1010.4 hPa WSW 19.3 km/h 20.9 km/h 75% 0 mm
18:24 23.7 °C 19 °C 1010.4 hPa SW 12.9 km/h 27.4 km/h 75% 0 mm
18:29 23.7 °C 18.9 °C 1010.4 hPa WSW 12.9 km/h 27.4 km/h 75% 0 mm
18:34 23.7 °C 19 °C 1010.7 hPa WSW 11.3 km/h 20.9 km/h 75% 0 mm
18:39 23.9 °C 18.9 °C 1010.7 hPa SW 9.7 km/h 14.5 km/h 74% 0 mm
18:44 23.8 °C 19.1 °C 1010.7 hPa SSW 14.5 km/h 16.1 km/h 75% 0 mm
18:49 23.7 °C 18.9 °C 1010.4 hPa SW 6.4 km/h 20.9 km/h 75% 0 mm
18:54 23.7 °C 18.9 °C 1010.7 hPa SW 9.7 km/h 20.9 km/h 75% 0 mm
19:04 23.3 °C 18.7 °C 1010.7 hPa SW 11.3 km/h 20.9 km/h 75% 0 mm
19:09 23.3 °C 18.9 °C 1010.4 hPa West 6.4 km/h 16.1 km/h 76% 0 mm
19:14 23.3 °C 18.6 °C 1010.7 hPa West 11.3 km/h 19.3 km/h 75% 0 mm
19:19 23.2 °C 18.8 °C 1010.7 hPa WNW 8 km/h 14.5 km/h 76% 0 mm
19:24 23.3 °C 18.8 °C 1010.7 hPa SW 6.4 km/h 14.5 km/h 76% 0 mm
19:29 23.2 °C 18.8 °C 1010.7 hPa WSW 6.4 km/h 11.3 km/h 76% 0 mm
19:34 23.1 °C 18.7 °C 1011.1 hPa WSW 16.1 km/h 16.1 km/h 76% 0 mm
19:39 22.9 °C 18.7 °C 1011.1 hPa SW 6.4 km/h 16.1 km/h 77% 0 mm
19:44 22.7 °C 18.7 °C 1011.1 hPa SW 6.4 km/h 16.1 km/h 78% 0 mm
19:49 22.6 °C 18.5 °C 1011.1 hPa SW 8 km/h 14.5 km/h 78% 0 mm
19:54 22.4 °C 18.6 °C 1011.1 hPa WSW 6.4 km/h 14.5 km/h 79% 0 mm
19:59 22.2 °C 18.6 °C 1011.1 hPa WSW 6.4 km/h 14.5 km/h 80% 0 mm
20:04 22.1 °C 18.5 °C 1011.1 hPa WSW 6.4 km/h 14.5 km/h 80% 0 mm
20:09 22 °C 18.6 °C 1011.1 hPa WSW 4.8 km/h 12.9 km/h 81% 0 mm
20:14 21.9 °C 18.6 °C 1011.1 hPa WSW 4.8 km/h 9.7 km/h 81% 0 mm
20:19 21.9 °C 18.5 °C 1011.1 hPa WSW 3.2 km/h 14.5 km/h 81% 0 mm
20:24 21.9 °C 18.5 °C 1011.1 hPa SW 6.4 km/h 9.7 km/h 81% 0 mm
20:29 21.8 °C 18.6 °C 1011.1 hPa SW 3.2 km/h 8 km/h 82% 0 mm
20:34 21.8 °C 18.6 °C 1011.4 hPa WNW 8 km/h 8 km/h 82% 0 mm
20:39 21.8 °C 18.6 °C 1011.1 hPa SW 8 km/h 11.3 km/h 82% 0 mm
20:44 21.7 °C 18.4 °C 1011.1 hPa WSW 3.2 km/h 8 km/h 82% 0 mm
20:49 21.6 °C 18.6 °C 1011.4 hPa SW 4.8 km/h 9.7 km/h 83% 0 mm
20:54 21.5 °C 18.5 °C 1011.4 hPa SW 6.4 km/h 11.3 km/h 83% 0 mm
20:59 21.4 °C 18.6 °C 1011.4 hPa SW 4.8 km/h 11.3 km/h 84% 0 mm
21:04 21.3 °C 18.4 °C 1011.1 hPa SW 3.2 km/h 8 km/h 84% 0 mm
21:09 21.2 °C 18.6 °C 1011.1 hPa SW 3.2 km/h 8 km/h 85% 0 mm
21:14 21.1 °C 18.5 °C 1011.1 hPa SW 1.6 km/h 8 km/h 85% 0 mm
21:19 21.1 °C 18.4 °C 1011.1 hPa SSW 1.6 km/h 4.8 km/h 85% 0 mm
21:24 21.1 °C 18.4 °C 1011.1 hPa SW 1.6 km/h 4.8 km/h 85% 0 mm
21:29 21 °C 18.4 °C 1011.1 hPa Calm     85% 0 mm
21:34 21.1 °C 18.4 °C 1011.1 hPa SW 1.6 km/h 6.4 km/h 85% 0 mm
21:39 21.1 °C 18.5 °C 1011.1 hPa SSW 4.8 km/h 6.4 km/h 85% 0 mm
21:44 21.2 °C 18.6 °C 1011.1 hPa SW 3.2 km/h 8 km/h 85% 0 mm
21:49 21.2 °C 18.4 °C 1011.1 hPa SW 3.2 km/h 8 km/h 84% 0 mm
21:54 21.3 °C 18.3 °C 1011.1 hPa SSW 4.8 km/h 8 km/h 83% 0 mm
21:59 21.4 °C 18.2 °C 1011.1 hPa SW 4.8 km/h 11.3 km/h 82% 0 mm
22:04 21.6 °C 18.2 °C 1011.1 hPa SW 4.8 km/h 11.3 km/h 81% 0 mm
22:09 21.7 °C 18.3 °C 1011.4 hPa SW 4.8 km/h 9.7 km/h 81% 0 mm
22:14 21.7 °C 18.1 °C 1011.4 hPa SW 4.8 km/h 9.7 km/h 80% 0 mm
22:19 21.8 °C 18.2 °C 1011.1 hPa SW 1.6 km/h 6.4 km/h 80% 0 mm
22:24 21.8 °C 18 °C 1011.1 hPa SW 1.6 km/h 8 km/h 79% 0 mm
22:29 21.8 °C 18 °C 1011.1 hPa Calm   9.7 km/h 79% 0 mm
22:34 21.8 °C 18 °C 1011.1 hPa SSW 1.6 km/h 4.8 km/h 79% 0 mm
22:39 21.8 °C 18 °C 1010.7 hPa Calm   4.8 km/h 79% 0 mm
22:44 21.7 °C 17.9 °C 1010.7 hPa Calm     79% 0 mm
22:49 21.7 °C 17.9 °C 1011.1 hPa Calm     79% 0 mm
22:54 21.7 °C 17.9 °C 1011.1 hPa SW 1.6 km/h 6.4 km/h 79% 0 mm
22:59 21.7 °C 17.9 °C 1011.1 hPa SW 3.2 km/h 9.7 km/h 79% 0 mm
23:04 21.8 °C 18 °C 1011.1 hPa SW 3.2 km/h 9.7 km/h 79% 0 mm
23:09 21.9 °C 18.1 °C 1011.1 hPa SW 4.8 km/h 11.3 km/h 79% 0 mm
23:14 21.9 °C 18.1 °C 1011.4 hPa WSW 1.6 km/h 11.3 km/h 79% 0 mm
23:19 22 °C 18.2 °C 1011.4 hPa SW 6.4 km/h 14.5 km/h 79% 0 mm
23:24 22.2 °C 18.3 °C 1011.1 hPa WSW 6.4 km/h 14.5 km/h 79% 0 mm
23:29 22.2 °C 18.6 °C 1011.4 hPa WSW 8 km/h 19.3 km/h 80% 0 mm
23:34 22.3 °C 18.7 °C 1011.4 hPa WSW 8 km/h 19.3 km/h 80% 0 mm
23:39 22.2 °C 19 °C 1011.1 hPa WSW 8 km/h 16.1 km/h 82% 0 mm
23:44 22.2 °C 18.9 °C 1011.1 hPa WSW 6.4 km/h 16.1 km/h 82% 0 mm
23:49 22.1 °C 19.1 °C 1011.1 hPa West 6.4 km/h 17.7 km/h 83% 0 mm
23:59 21.9 °C 19.1 °C 1010.7 hPa WSW 6.4 km/h 14.5 km/h 84% 0 mm
Buffalo, New York, USA
Compliments of Weather Underground - 2.5 mb